RH
19 22 22 23 25 25 25 25 25 25 26 26 27 28 29 30 30 29 28 28 31 32 31 32 34 34 33 31 29 28 29 31 32 34 36 37 35 38 38 35 43 53 57 59 58 57 54 51 52 55 58 58 53 51 51 50 50 51 52 54 53 50 50 48 48 47 46 45 44 42 39 35 33 34 36 37 40 53 59 55 60 69 84 95 87
18 18 17 19 21 24 24 24 24 24 24 24 25 26 27 28 29 29 28 26 27 30 30 31 32 33 33 32 30 28 28 28 30 31 34 36 37 39 38 37 44 53 56 57 56 55 54 52 51 53 56 57 55 52 51 53 55 55 55 54 51 49 47 47 49 49 45 44 43 41 34 28 27 29 35 40 43 49 46 43 49 55 73 84 75
16 15 16 17 18 21 23 23 23 24 24 24 24 25 25 27 28 29 29 28 27 28 30 30 30 31 32 31 29 27 25 24 26 29 31 35 38 39 38 37 45 54 57 57 56 55 54 52 50 51 54 55 56 53 51 54 57 55 55 55 51 48 46 45 47 47 46 46 44 38 30 27 27 25 31 38 39 39 37 39 42 43 57 68 62
18 17 17 18 19 20 21 23 24 25 26 25 25 25 25 27 28 29 30 30 29 28 30 32 31 30 31 31 30 27 25 24 25 27 30 33 36 38 38 37 43 52 57 57 57 56 55 53 51 50 51 53 54 52 50 51 54 53 53 54 53 50 47 45 45 44 46 48 43 34 30 32 31 27 31 36 34 32 32 34 39 39 45 54 56
20 19 20 20 21 21 22 24 25 25 25 25 26 26 26 27 28 29 30 31 31 30 30 32 34 33 32 33 34 32 30 29 27 27 28 31 34 35 37 39 42 49 54 55 55 56 56 55 54 52 51 50 51 50 49 47 47 49 51 51 52 51 47 45 43 41 43 46 45 40 37 37 34 32 36 36 30 29 30 32 37 39 41 47 52
21 21 21 22 22 23 24 25 26 26 25 27 28 28 29 29 29 30 31 32 33 33 32 33 35 35 33 33 34 34 33 31 29 28 27 28 31 32 34 37 42 46 49 52 53 54 55 55 56 57 53 50 50 49 48 45 44 44 46 48 49 50 48 45 43 41 40 42 45 45 45 44 39 38 40 36 30 29 32 34 35 37 40 43 45
22 22 22 22 23 24 25 25 26 26 27 29 31 31 32 32 31 31 32 32 33 34 34 34 35 35 34 32 31 31 30 29 28 27 27 27 28 30 32 36 40 43 45 49 53 54 54 53 55 59 57 52 51 50 48 45 44 44 45 46 47 48 49 48 46 43 38 36 40 44 48 49 47 45 44 42 41 38 35 34 35 36 39 40 42
23 24 23 23 24 24 25 26 26 27 28 31 32 32 33 33 33 34 33 34 34 35 35 36 36 36 35 34 32 31 30 28 27 25 25 25 26 28 30 33 36 40 42 45 48 51 54 53 53 59 60 56 52 50 49 46 44 45 47 49 50 49 48 49 48 43 38 35 35 40 45 48 48 47 47 45 47 46 40 35 35 37 39 40 42
23 24 24 24 25 25 26 27 26 28 29 31 32 33 34 34 35 36 35 35 34 35 37 37 37 37 37 36 34 33 32 30 29 27 24 23 24 26 27 29 32 36 38 39 41 46 52 54 53 56 58 58 55 50 49 47 45 44 47 53 55 51 47 47 47 43 39 37 37 38 40 43 45 46 46 44 44 47 44 37 34 35 36 38 39
24 24 25 25 26 26 27 27 28 29 30 32 34 35 35 35 35 35 35 36 36 35 37 38 38 39 40 38 36 35 33 32 31 29 26 24 24 25 25 26 27 31 33 35 38 42 47 52 53 53 54 55 53 51 49 47 47 47 48 53 54 50 46 44 46 45 41 40 40 39 38 40 43 44 47 47 45 45 44 39 35 36 37 36 39
25 25 26 26 26 27 27 28 29 30 31 33 35 36 37 37 36 35 34 35 36 36 36 38 39 40 40 39 37 36 34 33 31 29 27 25 25 25 25 25 26 28 31 33 36 40 44 48 50 51 52 51 50 49 48 46 47 49 50 52 50 46 42 40 43 46 46 44 42 42 42 41 40 39 41 43 44 42 42 40 36 38 40 40 42
26 27 27 27 27 28 28 30 30 31 33 36 38 38 39 39 38 36 36 36 36 36 36 37 39 41 40 39 37 36 35 33 31 30 28 26 26 25 25 26 27 28 31 33 35 38 40 43 47 49 49 50 48 46 45 43 43 46 48 49 46 41 38 38 41 44 48 48 47 46 46 44 40 37 36 37 39 40 40 42 42 45 49 48 49
27 28 28 28 28 29 30 31 32 33 36 38 40 40 41 41 40 39 39 39 38 38 37 36 37 39 40 40 38 37 35 34 33 31 29 27 26 25 25 26 27 29 30 30 31 34 37 40 43 47 47 47 46 43 42 41 41 43 45 44 41 38 37 39 41 44 47 50 50 49 47 45 41 38 37 36 37 38 42 49 52 53 53 52 52
28 29 29 29 29 29 30 32 33 36 39 41 42 42 43 42 41 41 41 41 42 42 41 39 36 35 36 37 38 38 36 35 34 32 30 28 26 25 24 25 26 27 28 28 29 32 36 38 40 42 44 44 44 42 40 40 42 42 41 38 38 39 39 41 43 44 46 49 50 50 48 46 44 41 39 38 37 37 43 52 55 55 55 53 52
29 30 29 29 29 29 31 33 35 38 42 43 43 44 45 45 44 44 44 45 45 44 42 41 39 36 33 33 34 36 37 37 35 33 31 30 28 26 24 24 25 25 26 27 28 31 34 36 38 39 40 41 41 41 42 42 42 41 39 38 38 39 41 42 45 47 49 51 52 52 51 49 47 45 43 40 38 38 41 46 50 57 64 57 50
30 31 31 30 30 30 32 34 37 41 44 44 45 47 48 48 48 48 49 48 47 47 45 41 40 39 36 33 33 33 35 36 36 35 34 31 30 28 25 25 26 25 26 28 29 31 33 34 37 39 39 39 38 40 42 43 43 42 41 41 40 41 42 43 45 48 51 53 54 55 54 52 50 48 46 44 42 40 40 41 45 54 63 61 54
31 32 32 31 30 30 32 36 39 42 44 45 46 47 47 45 43 44 49 50 46 45 46 44 42 40 38 35 34 33 34 34 35 35 35 33 31 29 27 26 27 27 27 29 30 31 33 35 36 39 40 39 38 39 41 43 44 44 44 45 45 45 45 45 45 47 49 52 54 57 57 56 54 51 49 47 46 45 42 43 44 46 50 54 58
32 32 31 31 30 30 32 36 39 42 44 44 43 42 42 40 37 37 41 47 48 44 44 46 45 42 40 38 36 35 34 33 34 33 34 34 33 31 29 27 28 29 29 30 31 32 35 38 40 40 41 41 40 40 42 43 44 44 45 47 49 49 49 49 48 48 48 50 53 56 59 59 58 55 53 50 49 49 47 46 46 45 46 49 54
32 32 31 31 31 31 34 36 39 43 45 44 43 41 39 39 41 39 37 41 46 44 42 44 46 45 43 41 39 37 35 34 34 34 33 33 33 32 31 29 29 31 31 32 33 35 36 40 43 43 43 43 42 42 43 44 45 44 45 46 47 49 50 52 53 52 51 51 52 55 58 59 59 58 57 55 54 53 53 51 51 50 50 51 52
32 32 32 32 32 34 36 38 41 44 46 45 44 43 42 41 43 44 42 42 43 41 39 41 42 44 44 43 41 40 40 38 35 35 34 33 33 33 32 31 31 32 34 34 35 37 38 40 44 46 45 45 44 44 45 45 45 44 44 45 46 47 48 50 53 55 56 55 55 56 58 59 59 58 59 59 59 58 58 58 56 54 52 53 54
33 33 33 34 36 36 36 38 41 42 42 42 41 42 43 43 44 45 44 45 43 41 41 42 42 43 44 45 44 43 43 42 39 37 35 33 33 34 34 33 34 35 36 37 38 39 41 42 44 46 47 47 46 46 46 45 45 44 44 46 46 46 46 48 51 54 57 59 60 61 61 61 61 60 60 60 61 62 62 60 59 57 55 53 53
31 34 38 39 38 36 35 38 40 39 38 38 39 41 43 43 45 47 49 50 49 44 43 44 44 42 41 42 45 46 44 44 44 40 36 34 34 34 35 34 36 37 38 39 41 42 43 44 46 47 47 47 46 46 46 46 46 45 46 47 47 47 47 49 51 52 55 59 63 65 66 67 66 65 65 64 62 62 63 63 61 59 57 55 54
33 39 41 40 37 35 35 37 37 37 38 39 39 41 42 44 45 49 54 58 57 50 45 43 43 42 39 39 43 46 43 43 45 43 38 35 35 35 36 37 38 40 41 42 43 44 45 46 47 49 48 47 46 46 47 47 47 47 49 50 49 48 49 51 53 55 56 58 62 66 69 71 71 72 72 71 69 66 65 65 62 57 56 57 56
41 44 40 38 35 35 36 37 37 37 37 38 39 40 42 46 47 48 51 56 58 53 48 46 45 44 43 43 46 47 45 42 43 43 40 36 35 35 36 39 42 43 45 46 46 45 45 46 48 49 49 48 48 49 51 50 49 50 51 52 52 52 54 55 56 58 60 60 61 65 68 71 74 75 74 74 74 72 69 67 64 61 60 60 57
48 43 37 35 36 37 36 36 37 37 36 36 38 42 46 50 51 50 50 54 58 56 52 50 50 49 49 49 49 49 47 43 43 45 44 39 37 36 37 41 45 47 48 49 49 49 48 48 50 50 49 50 51 53 55 55 55 55 54 55 56 57 58 59 60 61 64 65 66 68 70 73 75 75 74 74 74 74 72 70 66 65 64 63 62
47 40 36 35 35 35 34 34 35 37 36 35 38 45 52 52 52 52 50 52 58 59 56 55 54 52 50 47 46 46 47 47 49 50 49 44 39 37 39 43 47 50 52 52 52 53 53 52 52 53 53 53 54 56 58 60 61 61 60 59 60 62 63 64 65 66 69 72 73 74 76 77 79 80 79 77 75 75 75 74 71 68 65 64 65
41 38 37 36 35 34 34 36 39 39 39 42 46 51 54 52 49 50 50 52 59 62 61 59 57 52 47 43 42 44 47 52 57 56 53 48 43 40 43 47 50 53 55 56 56 57 57 57 56 56 57 58 58 59 60 62 64 63 64 65 67 69 70 71 74 77 79 82 84 86 86 86 86 88 87 83 80 79 78 77 76 74 71 69 69
42 42 39 39 39 38 40 42 44 47 49 51 54 55 55 52 50 50 52 57 60 62 61 58 54 49 45 43 43 46 51 61 66 60 53 50 47 46 48 51 55 58 59 60 61 61 61 61 62 61 61 61 63 64 64 65 65 65 68 73 75 76 77 80 85 89 92 93 95 97 97 95 95 96 95 91 87 86 87 86 84 81 80 79 78
45 45 40 40 42 43 45 46 48 51 50 47 49 52 51 51 52 54 56 58 58 58 56 53 48 46 47 49 50 52 60 70 70 61 56 55 52 52 55 57 59 62 64 65 66 67 66 65 67 67 66 66 68 68 67 67 68 70 74 78 80 80 83 87 92 96 98 99 100 100 100 100 99 99 100 97 92 91 93 93 91 91 91 89 86
46 42 39 41 44 46 46 47 49 51 48 45 46 48 48 49 52 54 56 56 55 53 52 51 52 53 54 55 56 61 71 77 72 64 61 60 58 59 62 62 63 66 70 72 72 73 72 72 72 71 72 74 74 72 71 73 77 79 81 85 88 89 90 91 93 96 97 98 100 100 100 100 100 100 101 100 97 95 94 92 92 96 97 96 93
44 40 42 46 49 49 45 45 47 49 51 51 49 48 50 51 53 55 55 54 54 55 56 57 59 59 58 61 66 75 81 79 72 68 67 66 65 66 67 67 69 72 76 79 78 77 78 79 79 78 80 81 78 77 79 84 89 90 90 93 96 98 98 95 95 96 95 96 99 101 100 100 100 100 100 100 99 98 97 97 98 99 99 98 97
42 43 49 52 52 49 46 46 47 47 51 54 53 53 55 56 57 58 59 60 61 62 62 62 64 65 68 75 82 86 83 76 72 72 71 71 72 72 72 73 74 77 81 83 82 81 81 83 84 83 85 85 83 85 91 95 98 98 98 99 98 99 99 99 98 99 98 98 99 100 100 100 100 100 100 100 100 100 100 100 100 100 100 100 99
43 49 54 55 52 49 48 49 50 52 57 61 61 59 59 61 63 65 65 66 66 66 67 69 71 73 77 83 87 86 83 80 77 74 73 75 77 76 75 76 77 80 83 84 84 83 83 85 86 86 90 93 92 94 99 100 100 100 100 100 100 100 100 100 100 100 99 99 98 96 98 101 100 100 101 100 97 97 99 101 100 100 100 100 100
48 54 55 51 48 47 49 53 58 62 64 64 64 64 64 64 65 66 66 65 67 70 73 75 72 70 73 78 82 84 85 83 78 76 78 80 81 81 80 80 82 83 84 86 87 88 89 91 93 94 96 99 98 98 100 101 100 100 100 100 101 100 100 100 100 99 99 99 99 97 97 100 101 100 100 100 96 92 93 97 99 100 100 100 100
54 55 51 46 46 50 55 59 63 63 60 62 66 66 63 60 62 64 63 66 71 74 76 76 74 75 76 80 85 88 88 85 78 78 84 85 83 84 84 84 87 88 88 88 90 93 96 98 99 99 99 99 99 100 102 101 100 100 100 100 100 100 100 100 100 100 99 98 99 100 99 99 101 100 100 101 96 88 88 93 97 100 100 100 100
55 51 47 49 54 60 62 60 59 60 63 67 67 61 57 58 62 65 67 72 75 74 75 78 79 80 81 84 89 88 85 86 83 79 84 87 87 88 88 88 91 91 91 92 93 96 100 100 100 99 100 98 97 100 102 100 100 100 100 100 100 100 100 101 100 100 100 98 98 100 100 100 100 100 100 99 93 89 93 98 99 100 100 100 100
51 49 51 57 61 61 60 58 61 66 69 67 63 59 61 65 68 71 75 78 78 76 79 82 82 83 86 87 87 84 84 89 85 79 80 85 89 92 91 92 94 93 92 94 97 99 100 100 100 100 100 98 97 99 102 100 100 100 100 100 101 100 100 100 100 99 99 99 99 99 100 100 100 100 100 98 96 97 99 100 100 100 100 100 100
51 51 54 58 59 59 62 64 68 72 69 63 62 64 68 70 73 79 80 80 83 84 81 77 73 77 87 90 85 82 86 89 84 79 80 83 89 96 95 95 97 95 91 94 98 100 100 100 100 100 100 100 98 99 101 100 100 100 100 100 100 100 100 99 96 95 97 99 99 100 101 100 100 101 98 93 95 99 100 100 100 100 100 100 100
51 49 51 57 61 64 68 70 71 70 66 64 66 69 72 75 81 86 82 79 84 88 85 80 75 75 85 91 87 83 87 89 88 87 85 85 92 98 98 98 100 97 93 95 98 99 99 100 100 100 101 101 100 100 101 101 100 100 100 100 100 100 100 96 92 92 93 96 98 98 99 100 100 100 95 91 93 97 99 101 99 99 102 99 92
47 50 55 61 66 69 70 70 69 66 65 67 69 72 80 86 89 89 83 77 80 84 86 88 87 85 87 90 88 87 90 93 95 94 92 92 96 100 100 100 100 97 94 94 96 97 99 100 100 100 101 102 100 99 100 102 101 100 100 100 100 100 98 93 89 88 88 92 94 94 96 98 99 96 92 91 91 92 97 101 99 100 101 94 85
51 57 61 64 68 70 70 69 66 66 69 71 73 81 89 89 86 84 81 78 81 86 89 89 88 88 88 88 88 89 90 92 93 93 95 97 98 100 100 100 100 98 96 95 96 98 100 100 100 100 100 100 100 99 99 101 101 101 100 100 100 100 96 91 87 85 85 87 88 90 91 92 93 93 91 90 88 86 90 97 99 100 96 89 90
58 59 61 66 70 71 70 69 68 70 73 72 79 92 94 87 83 83 84 88 91 93 93 91 90 90 90 90 90 91 91 92 93 93 94 96 98 100 100 100 100 100 99 99 99 100 100 100 100 100 101 101 101 101 100 99 100 101 100 100 101 99 94 90 86 83 82 82 83 89 91 87 87 91 91 88 84 82 83 88 92 93 90 89 94
59 60 64 69 71 70 69 70 71 73 73 73 80 90 90 87 86 86 89 95 97 94 92 91 90 90 90 90 91 92 92 93 95 95 95 96 98 100 100 100 100 100 100 101 100 100 100 100 98 97 98 99 101 101 99 98 100 102 100 100 100 96 91 90 88 84 82 82 85 91 93 87 86 91 92 89 85 83 82 83 82 81 80 81 86
60 64 68 70 71 72 72 73 73 73 74 77 82 85 85 86 87 88 92 95 94 92 91 90 89 89 90 90 91 91 91 92 93 96 95 95 99 101 100 100 100 100 99 98 98 98 98 95 93 91 91 92 96 99 99 100 101 102 100 100 100 96 90 88 88 87 85 84 86 88 88 85 86 89 89 86 83 81 81 83 84 84 85 86 87
64 68 69 71 73 74 74 75 75 75 77 80 84 86 88 89 89 91 94 94 92 92 91 89 89 89 90 91 91 90 90 88 89 94 95 94 98 101 100 100 101 99 96 93 91 91 91 89 87 86 84 84 88 93 97 100 101 101 100 100 100 96 90 85 85 88 86 81 79 78 78 79 82 83 82 81 81 84 89 94 96 96 96 96 95
68 69 70 73 75 75 76 78 79 79 80 84 88 90 91 91 91 93 95 94 93 93 90 89 91 90 90 92 89 86 86 83 83 94 98 93 96 100 99 98 99 96 92 90 87 86 87 86 84 83 82 82 85 88 93 98 101 100 100 101 100 97 95 93 94 93 85 75 74 78 82 85 87 89 90 91 94 97 98 99 97 94 91 91 91
69 69 72 75 77 77 80 83 83 82 84 88 92 92 92 92 94 95 96 95 94 93 90 91 93 90 89 89 85 82 83 78 78 91 97 92 94 100 99 95 94 91 90 90 87 85 85 85 82 82 82 83 84 86 89 94 98 98 97 99 99 97 95 96 96 94 88 84 87 93 96 97 98 99 99 98 98 96 93 90 88 85 84 85 86
69 72 74 76 79 81 84 87 86 85 90 95 96 94 94 95 96 96 96 96 96 96 94 93 93 89 86 85 82 81 81 77 76 88 95 91 92 98 96 92 92 91 88 88 88 87 86 85 83 82 82 82 83 85 86 89 90 89 87 87 88 87 86 84 82 85 92 98 99 96 94 93 93 93 91 89 87 85 83 83 80 78 79 80 80
72 74 75 79 84 86 87 88 87 86 91 97 98 96 96 98 98 97 97 97 98 99 97 93 90 87 83 82 81 79 79 77 76 85 95 95 95 98 97 95 96 97 94 91 90 88 86 87 86 84 82 80 78 79 83 86 85 82 79 77 76 76 77 76 74 80 91 95 90 84 82 82 82 82 80 77 75 74 74 75 73 72 74 77 76
75 76 77 82 89 91 90 89 88 87 89 94 97 98 98 99 99 98 98 98 99 101 98 92 88 86 83 83 81 78 78 78 77 82 90 94 96 100 101 98 98 100 101 100 97 93 91 92 90 87 86 87 85 80 79 82 83 82 81 80 79 77 76 74 74 81 90 89 82 78 77 75 74 73 72 70 69 70 72 72 73 75 78 80 81
78 80 81 85 91 94 92 90 89 90 92 96 98 98 98 99 100 99 99 100 100 101 98 93 89 86 84 82 80 78 77 77 79 83 88 90 90 94 98 100 100 100 101 101 101 99 98 98 96 92 91 93 95 94 91 88 86 83 83 84 85 83 82 81 83 90 94 89 82 79 76 75 74 73 71 71 72 74 76 76 77 80 83 87 90
Wind_Speed
4 5 5 3 3 4 6 9 9 10 11 12 14 15 15 16 17 19 19 17 17 18 18 19 20 19 18 18 19 18 18 18 19 19 19 18 17 17 18 18 17 16 16 15 15 14 13 13 13 13 13 13 13 14 14 13 13 12 11 12 12 13 14 14 12 12 14 14 15 15 16 18 19 18 16 13 11 10 10 10 10 11 11 12 15
5 7 8 7 5 3 5 7 8 9 11 11 12 14 14 15 16 18 18 17 18 19 19 20 22 21 19 18 18 17 17 17 18 18 18 18 18 18 19 18 17 18 17 17 16 15 15 14 14 14 14 14 14 14 14 14 14 13 13 13 13 13 13 13 11 10 11 11 11 12 13 14 13 12 11 10 8 7 9 10 10 11 10 13 15
7 10 12 13 12 9 7 7 7 8 11 12 12 12 13 14 16 17 17 17 19 20 21 22 21 20 20 19 17 16 16 16 16 16 16 17 17 19 21 20 18 19 19 18 17 17 16 16 15 15 15 15 15 15 15 15 15 14 14 14 13 13 13 13 11 10 10 11 10 8 7 8 8 8 6 5 5 7 9 10 10 10 10 12 14
8 10 12 13 14 13 12 12 11 10 10 11 12 12 12 14 15 16 16 17 18 19 22 23 22 19 19 19 19 18 17 15 15 16 16 17 17 18 20 21 20 20 20 19 19 18 18 17 16 16 16 16 16 16 16 16 15 15 15 14 14 13 12 12 11 10 9 8 7 6 5 6 6 4 4 8 11 11 10 8 9 10 10 11 12
8 10 11 13 14 14 14 14 14 12 12 13 13 13 13 14 15 15 16 16 17 18 20 20 20 19 18 17 18 19 19 18 17 18 18 19 20 21 21 22 22 21 21 21 20 19 19 19 18 17 17 17 17 17 16 16 16 15 15 15 15 14 13 12 11 10 10 10 8 6 5 4 4 5 8 10 10 10 9 9 9 10 10 10 11
8 10 11 13 15 15 15 15 14 13 13 13 14 13 14 15 15 15 15 15 16 17 18 18 18 18 18 17 17 17 19 20 21 21 20 20 22 23 22 22 23 22 22 22 22 21 20 20 19 18 18 17 17 17 16 16 16 16 16 16 16 15 14 13 13 11 10 12 13 12 9 7 7 8 7 6 7 9 10 10 9 9 10 11 12
8 10 11 14 15 15 15 15 15 14 13 13 13 14 14 15 15 16 15 15 16 16 16 17 18 18 19 20 20 20 20 21 20 21 21 21 21 21 21 21 22 23 22 22 22 22 21 20 20 20 19 18 18 17 17 16 16 16 16 16 16 15 14 14 13 11 10 11 13 14 14 13 12 10 7 6 7 8 8 10 11 11 11 13 13
8 9 11 14 15 15 15 15 15 15 14 14 15 15 15 15 15 16 16 16 16 16 16 17 18 19 19 21 22 22 24 24 22 20 20 19 19 19 19 19 21 22 22 22 22 22 21 21 21 20 20 19 18 18 18 17 16 16 16 17 16 15 15 14 13 11 10 10 11 12 13 13 13 12 11 9 6 7 8 10 11 11 11 12 12
9 10 11 14 15 15 15 15 15 14 14 14 16 17 17 16 16 16 16 16 16 16 16 18 19 20 19 20 22 23 24 24 23 22 21 19 18 19 18 18 20 21 22 22 22 22 22 21 21 21 21 20 19 19 18 17 17 17 17 17 16 16 15 14 14 13 12 11 10 10 11 11 12 12 13 11 9 8 8 7 8 10 11 10 11
8 10 12 14 14 15 14 14 15 14 13 14 16 17 18 18 17 16 16 16 16 16 16 17 19 20 19 20 23 24 24 23 22 22 22 21 20 20 20 20 19 20 22 22 22 22 22 22 21 22 22 20 20 19 18 18 18 18 18 17 17 16 16 15 15 14 13 12 12 11 11 10 10 9 10 11 10 9 8 7 8 9 9 9 10
9 10 12 15 15 15 14 15 15 14 13 15 17 18 18 18 17 17 17 17 17 17 15 16 17 18 19 21 23 24 25 24 23 23 23 23 22 22 21 21 21 20 20 21 22 23 22 22 22 22 22 21 20 20 19 18 18 18 18 18 18 17 17 16 16 15 14 13 13 13 12 11 10 9 9 10 9 8 7 7 8 10 11 11 11
10 10 12 14 15 15 15 15 15 14 15 17 19 19 19 19 18 18 18 18 19 19 17 16 16 17 19 21 23 24 24 24 25 25 24 24 24 23 22 21 21 20 20 20 22 22 23 22 22 22 22 22 21 20 20 19 18 18 18 18 18 18 18 17 16 16 16 14 14 14 14 13 13 12 11 11 10 9 9 6 7 10 10 11 12
11 12 11 12 13 14 15 15 14 14 16 19 20 20 20 19 19 19 19 19 19 20 19 18 17 18 18 19 21 22 23 24 25 27 26 26 26 24 23 22 21 21 21 21 21 22 23 22 23 23 23 22 22 21 20 19 19 18 18 19 18 18 19 18 18 17 16 16 15 14 14 14 14 13 12 12 11 11 10 7 7 9 9 10 12
11 11 11 11 13 15 15 14 13 14 16 19 20 20 20 20 19 19 19 20 20 20 20 19 18 18 19 19 19 20 21 22 24 26 27 27 27 27 26 23 21 22 23 23 22 22 23 23 22 23 22 22 21 21 20 20 19 19 18 18 18 18 18 18 18 18 17 17 16 15 14 14 14 13 12 12 11 11 11 8 7 8 9 10 11
11 11 12 13 16 17 15 13 13 14 17 19 21 21 21 21 20 20 21 21 20 20 19 19 19 19 19 20 20 20 20 21 22 24 26 27 27 28 28 24 22 22 22 22 22 22 22 23 22 22 22 21 21 21 20 20 19 19 18 18 18 18 18 18 19 18 18 18 17 16 15 14 14 13 12 12 12 11 11 10 8 7 7 7 7
12 12 13 15 19 20 17 14 13 15 18 20 21 21 21 21 22 23 23 22 21 20 20 19 19 19 19 20 21 21 22 22 22 23 25 27 28 29 28 25 23 22 21 21 21 22 22 22 22 21 21 21 20 20 20 19 19 19 18 18 18 18 17 18 18 18 19 19 18 18 17 16 15 14 13 13 12 12 11 10 9 8 7 6 5
13 13 13 16 20 21 19 16 17 19 21 23 23 22 21 22 25 26 25 24 23 22 21 20 20 20 20 19 20 21 23 24 25 25 26 26 27 28 27 25 23 23 23 22 22 21 22 22 21 21 21 21 20 20 20 20 19 19 19 18 19 18 17 18 18 18 18 18 19 19 18 17 16 14 14 13 12 12 11 10 10 10 8 6 5
14 15 15 17 21 21 20 21 25 26 28 29 28 27 26 25 26 28 26 25 24 24 23 22 21 20 19 19 19 21 22 24 25 26 26 26 26 27 27 25 24 25 27 26 23 21 21 22 21 21 21 21 21 20 20 20 19 19 19 19 19 18 17 18 18 18 18 17 18 19 19 18 16 15 15 14 13 12 12 11 10 10 10 9 7
14 15 14 17 21 23 22 24 27 28 29 31 32 32 31 30 28 28 27 26 26 26 26 25 24 23 21 20 21 21 22 23 24 26 26 26 26 26 27 26 25 26 29 28 25 23 22 22 21 21 20 20 21 20 20 19 19 19 19 18 19 19 19 18 18 18 18 18 18 19 19 18 16 16 15 14 13 13 12 11 11 10 11 12 11
14 15 15 17 22 24 24 25 26 27 28 30 33 32 32 32 31 31 31 29 28 29 30 30 30 29 28 26 24 23 23 23 23 24 25 26 27 26 27 26 25 26 28 28 26 24 22 22 21 21 20 20 20 20 20 19 19 19 19 19 18 19 19 19 19 19 18 18 19 19 19 18 16 15 15 14 14 13 13 12 11 11 12 13 14
16 17 16 18 22 24 26 27 26 28 30 32 33 33 32 32 32 33 34 32 32 32 32 33 33 32 32 32 30 27 24 22 23 23 24 26 27 27 27 25 25 27 27 25 24 23 23 22 21 20 20 20 20 20 19 19 19 19 19 19 18 19 19 19 19 19 19 19 19 19 20 19 17 16 15 14 14 14 13 13 12 12 12 12 13
19 17 15 17 22 26 29 29 29 32 34 35 35 34 33 34 34 32 31 33 37 35 33 33 34 34 35 36 35 31 27 26 25 23 23 25 25 27 26 23 25 29 27 24 23 23 22 21 21 20 20 20 20 20 19 19 19 20 19 19 18 18 19 20 19 19 19 19 19 19 19 19 18 17 16 14 14 13 13 13 13 12 13 12 12
18 15 15 18 24 28 29 30 32 34 34 34 35 34 34 35 34 30 29 33 35 34 34 34 34 37 39 39 37 35 34 31 28 24 24 24 24 26 25 24 26 28 25 23 23 22 21 21 20 20 20 20 20 19 19 19 19 19 20 19 19 18 19 19 19 19 19 19 19 20 20 19 18 17 17 16 15 14 14 14 15 14 14 14 13
15 14 16 21 25 28 29 29 30 33 34 33 33 34 35 35 34 31 32 34 31 30 33 33 33 37 40 38 37 37 36 33 28 24 24 25 24 24 23 24 25 25 23 22 22 21 21 20 20 20 20 19 20 19 19 19 19 19 19 19 18 18 18 19 19 19 19 19 21 21 21 21 19 18 18 18 17 16 16 15 15 16 15 14 14
15 15 17 20 23 25 28 30 30 32 33 33 33 33 32 33 34 33 33 33 30 29 30 30 31 35 37 37 37 36 35 32 27 23 24 25 24 23 22 23 24 23 22 21 21 21 20 20 19 19 19 19 19 19 19 19 19 18 18 19 18 19 19 20 20 20 20 20 22 23 22 21 21 20 19 19 18 18 17 16 16 15 15 14 14
15 17 18 19 21 25 29 31 32 33 34 35 35 33 32 33 33 33 33 34 32 30 29 31 33 35 37 38 37 37 36 31 23 20 23 24 23 22 22 23 25 24 23 21 21 21 20 20 19 18 19 19 18 19 19 18 18 18 19 19 19 20 21 21 21 21 20 20 21 22 22 21 22 22 21 19 18 18 17 17 16 15 14 13 12
17 19 19 20 22 26 31 32 32 34 36 37 36 34 33 34 35 35 36 35 33 31 31 34 36 37 39 39 38 37 32 24 18 20 22 22 21 21 21 23 26 25 23 21 20 20 19 19 19 18 18 18 18 18 18 18 18 19 20 21 21 21 21 20 20 19 19 19 19 19 20 21 22 22 21 20 19 18 18 17 16 15 14 13 12
20 20 21 22 22 24 29 33 33 34 36 38 37 35 35 36 37 37 35 33 33 33 34 36 37 39 39 39 37 33 24 17 17 20 22 21 20 20 21 21 22 22 22 22 20 19 18 17 17 18 17 17 18 18 18 18 19 20 21 20 20 19 19 18 18 17 17 16 16 16 17 19 21 21 21 21 20 18 17 16 16 15 14 13 12
21 22 23 22 22 22 27 32 34 35 37 38 38 37 36 37 37 36 34 34 34 35 36 37 38 38 37 37 35 27 19 17 18 20 21 21 20 20 21 21 22 22 21 21 20 18 18 17 16 16 17 17 17 18 18 19 20 20 21 19 18 18 18 17 17 16 16 16 17 18 19 20 21 21 21 22 22 19 17 16 16 15 14 13 12
21 23 23 21 22 24 29 33 34 36 37 38 37 37 38 38 37 36 36 35 35 36 37 37 37 36 36 36 32 22 17 18 18 19 22 22 19 18 20 22 24 23 21 20 19 18 18 17 17 16 16 17 17 18 19 20 20 20 19 17 15 15 16 17 16 16 16 17 18 20 20 21 21 22 22 23 23 22 20 18 16 15 14 13 13
21 22 21 21 22 25 30 33 35 36 36 35 36 38 38 38 37 36 37 37 37 36 35 35 35 35 35 33 27 20 19 19 19 21 22 22 21 20 22 24 24 22 20 19 19 19 19 18 17 17 17 17 18 19 19 19 19 19 18 16 14 13 14 16 17 16 16 17 17 19 19 20 21 23 23 23 24 23 22 21 19 17 15 15 14
22 21 21 22 22 25 30 33 35 36 35 35 36 38 37 36 37 37 37 37 36 34 34 34 34 34 33 28 24 22 22 21 21 22 25 26 24 23 24 24 23 22 20 19 20 21 20 19 18 19 18 18 18 18 18 18 18 19 19 19 18 17 16 15 15 15 15 15 16 17 18 19 21 22 23 23 24 23 23 23 22 21 19 18 17
21 21 21 22 25 29 33 34 34 35 35 35 36 36 35 35 36 37 36 35 34 33 33 31 31 33 32 28 26 25 23 21 22 24 28 29 26 25 25 25 24 23 21 21 21 22 22 21 20 20 18 16 16 16 17 18 19 20 21 20 20 22 21 19 17 16 16 16 16 17 18 18 19 21 22 23 23 23 23 23 23 22 23 23 22
20 19 20 25 30 32 33 34 34 34 36 36 34 33 34 36 36 35 35 34 33 32 30 30 33 36 34 32 29 26 22 21 25 28 28 28 25 26 26 25 24 23 22 22 21 20 20 19 18 17 15 14 15 16 17 19 19 20 21 21 20 21 23 24 23 21 19 18 18 17 17 17 18 19 21 22 22 22 20 20 21 22 22 23 24
18 19 23 28 31 31 32 34 34 34 36 35 33 34 37 38 36 35 34 33 32 31 31 33 35 35 34 33 30 27 25 24 28 30 28 27 27 26 26 24 21 21 22 22 20 17 15 15 15 15 15 16 18 18 18 20 20 20 21 21 21 20 21 23 25 25 22 20 20 19 19 18 17 18 20 21 21 20 19 19 19 20 20 20 21
20 23 26 28 29 29 31 34 34 35 36 34 35 38 40 39 36 34 34 32 31 31 32 33 35 36 37 36 32 32 31 27 27 30 29 28 28 27 26 23 19 17 17 17 16 14 13 15 17 17 18 19 19 18 18 19 20 20 19 19 20 20 20 20 23 24 24 22 21 21 21 20 19 18 18 20 21 20 20 20 18 18 18 17 18
26 27 27 27 28 29 31 33 34 34 32 33 37 39 37 36 34 33 32 30 29 29 31 34 37 38 36 33 33 36 34 28 28 31 31 30 28 27 25 21 16 15 15 14 13 12 11 13 16 18 20 21 19 18 18 19 19 19 19 19 19 19 19 19 18 19 20 21 21 21 21 20 19 18 18 19 20 20 20 18 16 17 17 16 16
28 29 30 30 31 30 31 33 34 32 32 35 38 37 34 34 33 31 31 31 28 28 31 38 41 40 35 32 34 36 33 30 32 33 32 30 27 26 22 17 15 15 15 14 11 10 10 11 14 17 19 19 17 16 17 18 18 19 19 19 18 17 17 18 18 18 19 20 21 22 22 21 20 19 18 18 19 20 20 18 16 15 15 15 15
28 30 31 33 33 33 34 35 33 33 36 37 36 35 33 32 30 29 32 34 33 32 34 39 42 40 36 34 35 35 33 32 33 32 32 30 25 20 16 13 14 14 14 12 10 10 10 9 11 14 16 16 16 15 15 16 17 18 19 19 18 17 16 17 18 18 19 20 21 22 24 24 23 20 19 19 20 20 20 20 18 15 14 15 17
31 33 33 32 32 33 35 35 35 37 38 38 37 35 31 29 29 30 32 35 37 37 38 39 39 37 36 36 36 36 34 32 32 32 32 28 20 14 10 11 12 11 12 12 11 10 9 8 8 10 12 14 15 15 15 15 16 18 18 19 18 17 17 17 17 18 18 20 20 21 22 24 25 23 20 20 21 20 19 19 20 20 18 18 19
29 31 33 34 33 33 33 33 35 37 37 37 36 32 29 31 34 33 34 36 38 39 38 38 38 37 37 37 36 36 35 33 33 33 29 24 18 12 10 10 10 10 10 10 10 8 7 7 7 8 10 13 16 16 16 15 15 17 18 19 19 19 18 17 17 17 17 17 18 20 20 21 24 25 23 22 21 20 19 18 20 21 21 20 19
30 31 33 33 33 33 33 33 33 34 34 35 33 29 30 35 36 34 34 35 37 38 36 37 38 37 37 37 36 37 35 33 33 31 27 23 18 12 10 9 8 9 9 9 8 7 6 6 6 7 9 12 14 15 15 15 15 16 18 19 20 19 18 18 17 17 17 17 17 18 17 18 20 21 21 20 20 19 18 17 17 18 19 19 19
33 34 34 33 32 32 33 33 33 33 33 33 31 31 34 35 34 34 35 35 36 37 37 37 38 37 38 37 37 37 35 33 32 29 24 22 16 10 9 9 7 7 8 8 7 6 5 6 7 7 9 10 12 13 14 15 15 16 17 19 20 19 19 19 18 16 16 16 15 13 12 14 16 17 16 16 16 16 16 17 17 18 19 20 21
32 33 33 33 32 32 33 32 32 33 31 29 31 35 37 35 34 36 36 36 37 37 37 38 38 38 39 38 37 37 34 33 30 24 20 19 13 9 8 7 7 7 7 7 7 6 6 7 8 8 9 10 10 12 13 14 15 15 16 18 19 19 19 19 18 16 15 14 12 10 9 11 13 14 14 14 16 16 17 17 17 17 18 18 17
31 32 32 32 31 32 33 33 33 32 30 28 31 36 36 35 35 36 37 38 39 39 38 39 39 39 39 38 38 36 32 31 28 21 18 17 11 8 7 6 6 6 6 7 6 7 7 7 8 8 9 9 8 9 10 11 13 14 16 17 18 18 19 19 19 18 15 12 12 12 12 13 14 14 15 15 14 13 13 12 11 10 8 7 6
31 31 31 31 31 31 32 33 33 32 29 29 32 33 33 35 38 38 38 38 39 40 40 40 39 39 39 37 36 33 29 30 27 18 14 14 10 7 7 6 6 6 6 6 6 6 6 7 7 7 7 7 7 8 8 9 10 11 14 16 17 17 17 17 17 18 16 14 13 12 11 11 11 11 11 12 10 9 9 8 7 7 7 5 4
31 31 32 31 30 31 33 33 33 32 29 29 32 33 32 35 38 38 38 38 39 40 41 40 39 39 37 34 32 30 28 29 26 16 12 13 10 7 7 7 6 6 6 6 6 6 6 6 6 6 6 6 6 7 7 7 8 8 9 10 11 11 10 7 7 10 12 10 8 7 7 7 8 8 8 9 8 7 6 5 4 4 5 5 5
30 30 31 30 30 32 33 33 33 33 30 28 31 33 34 36 37 37 38 39 39 39 40 40 38 36 34 31 30 29 28 28 25 17 12 12 10 7 7 7 7 7 6 6 6 6 7 6 6 5 5 5 6 6 6 6 7 7 6 6 6 6 6 5 5 6 7 7 6 5 4 4 5 4 4 4 5 5 5 5 5 4 4 5 7
29 30 30 29 29 32 33 33 33 33 31 29 31 33 35 36 37 37 38 39 40 40 39 38 35 33 31 30 29 29 28 26 24 19 12 10 10 8 7 7 6 6 7 7 6 6 6 6 6 5 5 5 4 5 5 5 5 5 5 6 5 6 6 7 7 7 7 7 5 4 4 5 5 5 6 6 5 4 4 5 7 8 7 6 8
28 29 29 28 29 31 33 33 32 32 33 33 33 34 36 36 36 37 38 40 41 40 37 34 32 31 31 30 29 29 28 25 23 19 15 12 10 9 9 8 7 6 7 8 8 7 6 5 5 6 7 7 4 2 3 5 6 7 7 7 7 6 7 8 8 9 8 7 6 5 5 6 6 6 7 7 5 3 2 2 4 6 6 6 6
28 29 29 29 30 31 32 32 32 32 33 34 34 35 36 37 37 38 39 40 41 39 35 33 31 30 31 31 30 29 27 24 21 18 16 14 12 10 9 9 9 9 8 8 9 9 8 7 7 7 8 8 7 5 4 5 6 7 7 9 10 10 10 10 10 9 8 6 5 5 6 6 5 4 3 3 3 1 1 2 2 2 4 5 4
Wind_Direction
349 328 320 314 305 303 310 315 305 291 289 284 281 279 275 272 269 266 264 256 247 241 237 236 238 238 236 236 238 239 237 235 235 234 232 231 232 236 245 252 247 239 235 234 237 239 242 244 244 244 242 243 245 245 247 248 249 252 255 260 265 269 273 274 279 287 291 291 290 292 292 288 280 275 274 272 266 259 263 270 272 280 284 280 286
353 357 7 15 2 328 317 324 316 307 308 303 294 291 286 280 274 272 270 260 250 245 241 241 243 242 240 241 242 242 239 233 230 229 228 228 229 233 242 247 243 238 233 232 234 236 237 238 239 240 239 240 242 243 244 244 244 246 252 257 260 262 267 270 276 284 287 291 297 301 297 291 285 274 265 261 261 259 265 274 275 278 279 282 290
16 18 16 11 2 350 335 325 319 317 323 323 316 309 301 292 285 281 275 265 257 250 246 247 248 246 246 246 247 248 245 238 234 233 229 226 226 232 242 245 239 233 231 229 231 231 231 234 236 237 236 236 238 241 241 239 240 243 245 249 255 259 263 265 268 269 277 292 296 292 297 307 305 285 260 254 277 281 275 273 273 275 278 282 289
24 17 10 359 353 351 348 343 337 329 326 331 331 324 313 303 296 288 279 271 264 255 252 254 254 251 250 250 250 252 252 248 243 238 233 230 228 230 237 242 239 230 227 226 227 228 228 230 232 233 234 233 234 238 238 236 237 238 238 241 246 253 259 261 261 260 264 279 288 289 301 297 288 311 334 306 295 289 276 267 270 277 280 282 285
26 9 1 353 351 349 348 349 348 343 341 342 339 329 319 311 305 295 285 278 271 264 258 257 256 252 251 251 249 251 252 248 244 240 234 231 232 234 235 236 235 229 224 224 224 225 225 227 229 231 231 231 232 234 236 236 235 235 235 236 239 243 252 260 261 258 256 255 256 272 293 280 279 331 335 305 290 288 282 278 278 281 281 277 281
26 7 358 353 352 349 347 349 351 350 350 347 341 334 326 319 314 307 295 285 279 274 264 255 252 251 248 247 247 246 247 243 240 240 236 232 235 237 235 230 228 225 223 223 222 222 223 225 226 227 228 229 230 232 234 235 234 234 233 233 236 239 246 255 258 257 256 251 245 249 259 267 287 310 315 298 291 290 288 290 286 285 286 281 280
20 5 358 355 352 349 347 347 347 345 343 341 340 339 336 330 324 318 308 296 288 283 272 258 252 253 250 249 250 251 253 252 248 246 241 236 235 232 226 223 221 221 222 222 222 222 222 223 224 224 226 227 228 230 232 233 232 232 231 231 234 235 236 241 249 252 254 251 243 243 249 256 266 276 282 290 297 291 285 292 291 288 292 290 284
13 0 357 354 350 347 344 342 341 340 339 338 338 337 336 334 332 327 318 307 296 290 281 268 259 258 256 255 256 255 257 260 260 257 250 240 231 224 218 217 216 217 219 221 222 222 220 220 221 221 223 224 226 228 230 230 231 230 229 228 229 230 229 232 238 243 245 249 247 244 246 251 256 259 261 265 279 290 290 289 290 292 292 291 287
9 0 355 351 347 343 341 338 337 340 342 342 340 337 333 327 326 325 320 312 302 293 283 278 274 269 263 260 261 260 260 262 262 260 255 244 230 223 218 217 216 217 218 220 221 222 220 219 218 219 221 221 222 226 227 227 228 228 226 223 223 225 227 227 231 234 238 245 250 250 250 251 252 254 255 255 258 272 287 291 294 299 295 289 288
3 0 354 348 344 340 339 337 337 340 342 342 340 338 334 326 319 316 316 316 310 299 284 280 281 273 263 261 263 264 265 265 263 259 252 244 234 228 224 222 220 218 218 219 220 221 220 219 218 219 219 218 220 223 223 224 225 225 223 221 220 224 226 226 226 229 234 241 246 251 254 251 249 251 249 248 251 258 268 283 291 297 299 296 295
359 359 352 346 342 339 339 337 337 340 340 339 338 336 333 328 321 316 316 318 317 311 293 281 279 271 263 264 266 267 269 267 265 261 253 246 240 233 227 225 223 219 217 217 218 218 219 220 219 219 218 217 218 219 219 220 221 221 221 221 222 223 225 225 224 226 230 238 243 246 251 252 251 256 254 251 253 258 267 279 289 297 298 296 298
360 354 348 343 339 338 339 338 339 340 339 338 336 332 330 327 325 324 323 323 323 320 307 287 277 274 271 270 269 271 272 270 267 264 259 253 247 241 232 226 222 218 216 216 216 216 216 219 219 219 219 217 216 216 216 217 218 218 218 219 221 222 223 223 224 224 225 231 239 241 246 252 254 257 261 261 260 266 278 283 289 299 297 292 297
356 348 342 340 337 337 338 338 340 339 337 336 333 329 327 326 327 327 328 329 327 324 320 304 284 276 276 275 273 275 275 272 270 268 264 260 256 251 241 228 217 215 215 215 215 213 213 216 218 217 218 217 216 215 214 214 215 216 216 217 219 219 220 222 223 224 222 226 234 239 243 248 252 255 257 262 262 263 271 277 285 292 291 293 299
351 344 339 336 334 334 335 337 338 336 335 333 330 327 326 327 328 328 327 328 327 325 324 318 303 287 281 278 276 276 275 272 271 269 267 264 260 258 251 234 220 217 217 216 215 212 212 215 217 218 218 218 217 215 213 214 213 213 214 216 217 218 219 221 222 223 223 225 229 234 240 243 248 252 254 256 258 258 262 269 284 287 284 289 296
349 342 337 335 334 334 336 338 337 333 331 330 329 330 331 331 331 329 327 325 325 323 321 319 315 305 294 285 278 275 273 271 272 270 269 265 260 259 254 237 226 225 222 218 215 211 211 215 217 219 219 217 217 215 213 212 211 212 214 216 218 218 219 220 221 222 222 224 226 230 236 241 244 247 250 253 253 255 260 264 274 286 288 287 290
348 342 339 339 337 336 337 337 333 328 327 330 333 336 338 337 333 329 326 323 321 319 318 316 313 310 305 295 286 281 276 272 270 269 268 265 261 259 252 237 230 229 223 217 213 211 211 213 216 218 218 217 217 215 212 211 210 211 213 216 217 216 217 220 221 222 222 222 224 227 232 237 240 243 247 251 252 253 256 257 261 269 282 290 293
347 342 340 339 337 337 337 335 331 330 332 336 337 337 335 331 329 326 321 316 316 317 316 316 314 311 309 303 294 287 282 278 273 270 269 267 264 259 251 239 233 230 226 221 215 212 212 211 213 217 217 218 218 215 214 212 210 212 213 215 215 214 217 219 220 221 221 221 223 224 228 233 236 239 242 245 248 252 252 250 254 261 271 284 292
343 340 340 339 337 338 339 335 333 334 335 335 332 329 325 322 322 322 316 310 312 317 318 316 316 312 307 305 302 294 287 283 279 276 273 269 265 260 249 240 235 233 232 228 218 211 210 211 211 214 216 217 217 216 215 213 212 214 215 215 214 213 217 220 221 223 222 221 222 222 224 228 231 233 236 240 242 247 249 247 249 253 258 265 276
339 339 340 338 338 342 345 337 333 333 331 328 326 324 322 319 316 316 316 312 310 315 317 316 314 311 305 301 302 301 294 287 283 282 279 271 265 259 248 238 235 236 235 230 222 212 210 209 209 212 215 217 217 216 216 214 214 216 217 217 216 214 216 220 221 222 222 221 221 221 221 223 226 227 230 234 237 241 245 245 244 242 247 256 265
338 338 337 339 342 347 344 334 328 328 324 322 322 321 318 317 316 315 316 315 312 311 313 314 313 311 307 301 300 301 298 292 288 285 281 274 267 261 252 240 233 236 235 230 222 213 209 208 207 210 213 215 217 216 215 215 215 218 220 219 217 215 216 218 219 220 219 219 221 221 221 221 220 222 225 228 231 235 238 241 245 244 245 251 256
338 336 338 343 345 341 335 329 326 324 323 322 322 320 317 317 317 316 315 314 312 311 310 311 312 310 309 307 304 303 301 301 299 292 285 278 269 263 258 244 233 236 235 225 217 212 209 208 206 209 213 215 217 216 215 216 217 220 222 221 220 218 218 219 219 218 217 218 220 220 221 220 218 219 221 223 225 228 232 237 242 246 247 247 248
334 339 346 348 341 335 332 330 327 326 326 325 324 322 321 319 317 315 314 312 312 312 311 311 311 310 310 309 307 306 307 308 307 300 291 281 270 264 258 243 236 242 236 221 215 211 208 207 206 210 214 215 217 216 215 216 218 222 223 222 221 220 221 220 219 219 217 216 217 219 221 219 217 219 220 221 223 222 223 228 233 240 246 246 244
338 349 351 342 335 333 332 330 328 328 328 327 325 323 322 320 316 312 311 310 310 309 309 310 310 308 309 310 308 307 309 309 307 303 296 285 274 267 255 238 237 243 234 220 216 211 207 208 208 210 213 215 217 218 217 218 220 221 222 222 222 222 222 221 220 220 218 216 217 220 222 219 216 216 218 220 223 223 222 226 233 239 244 247 246
351 353 341 335 334 333 332 330 328 328 326 325 324 323 321 319 317 315 314 312 309 304 304 308 309 307 307 308 306 304 304 305 303 302 301 291 278 270 256 238 236 238 228 219 216 210 208 209 209 211 214 214 217 218 219 219 221 223 223 223 223 223 223 223 223 224 221 220 221 222 222 220 215 215 218 220 221 222 224 228 233 237 238 244 249
352 342 335 335 335 333 331 330 328 326 326 325 324 322 322 321 319 319 319 316 310 303 302 304 306 305 304 304 303 301 299 300 300 302 304 297 283 271 257 241 235 233 224 217 213 209 209 211 210 213 214 215 217 218 219 220 221 223 224 224 225 225 227 228 228 228 225 223 224 224 222 219 216 215 216 217 217 218 221 224 228 230 231 237 243
341 336 336 336 333 331 331 331 328 327 327 326 325 324 325 323 319 318 319 316 310 305 302 302 303 303 303 304 304 301 298 296 299 305 307 302 287 270 255 243 241 237 223 215 212 208 208 211 211 213 214 216 218 217 219 220 221 224 226 228 230 230 231 232 232 231 228 225 224 223 221 217 215 214 213 213 215 214 216 220 223 225 226 230 235
335 336 335 333 330 330 331 331 329 329 328 327 326 325 323 321 320 318 317 315 311 306 304 303 303 303 305 306 305 303 300 297 302 308 308 303 288 268 253 246 247 241 224 215 212 207 206 209 211 213 214 216 218 219 220 220 221 226 229 230 231 232 232 233 232 229 226 224 222 221 219 216 214 213 211 211 211 211 213 217 219 221 223 226 231
336 335 332 330 329 330 332 332 331 331 331 329 326 324 323 322 321 320 317 315 312 307 305 305 305 305 306 307 307 305 301 301 309 310 306 302 289 268 255 248 242 233 221 215 212 206 205 207 209 212 214 216 217 218 220 222 224 227 228 228 229 231 232 232 229 226 223 222 223 221 218 217 215 214 214 212 209 207 208 212 216 218 219 221 226
336 332 330 330 330 333 335 334 333 332 331 329 325 324 324 323 322 321 318 316 315 311 309 309 309 309 308 308 310 307 300 306 315 312 307 302 289 268 256 250 240 230 222 216 211 206 204 206 208 210 213 214 216 219 223 224 224 224 224 225 227 229 230 230 228 226 223 222 223 223 221 219 218 217 217 216 214 208 205 208 211 212 214 216 220
335 330 330 331 332 335 335 333 332 330 328 328 327 326 325 323 322 321 319 319 318 316 313 312 312 312 311 311 310 305 304 313 317 315 311 303 287 268 256 251 244 235 224 214 209 206 204 205 207 209 211 212 216 224 228 225 221 219 218 219 223 226 228 230 230 229 227 226 224 224 224 223 222 221 218 218 219 216 214 216 216 214 212 211 214
332 330 331 333 334 334 334 333 330 328 328 329 328 326 324 323 322 321 321 320 319 317 316 316 314 313 312 312 311 309 312 314 311 312 313 303 289 276 262 254 246 233 221 212 208 207 206 205 206 207 209 213 220 225 225 222 219 218 214 210 214 222 227 231 233 231 231 231 227 224 223 223 223 222 219 219 221 221 221 225 225 222 218 215 214
331 332 334 335 335 334 333 332 330 329 328 328 327 325 323 323 322 321 321 319 319 320 318 317 316 316 317 319 318 314 311 309 308 311 314 310 299 283 268 255 245 232 221 214 211 211 210 208 208 210 213 218 223 223 221 221 221 221 219 216 216 219 223 228 231 231 232 231 229 227 225 224 223 222 219 218 219 221 224 227 229 227 226 224 221
331 335 338 336 333 331 331 331 330 328 326 325 325 323 322 322 321 319 320 319 319 319 316 317 323 326 326 324 317 308 304 307 312 313 314 313 302 283 269 256 244 235 224 217 217 216 215 214 214 216 216 218 220 221 221 222 224 226 227 227 225 223 221 221 225 230 233 232 231 230 227 225 222 219 217 216 218 221 224 228 231 231 232 232 229
335 338 337 334 331 330 329 329 327 325 324 323 321 321 321 322 320 319 319 319 318 318 320 326 329 327 322 316 310 307 308 317 322 317 312 310 302 286 272 258 244 234 225 221 220 218 217 217 215 213 213 215 218 219 222 226 229 231 232 234 236 232 225 224 226 230 233 233 231 230 227 224 220 215 212 213 216 220 224 230 233 232 232 233 233
338 337 333 331 331 331 329 327 326 326 324 322 323 324 324 322 321 321 320 320 321 323 327 330 328 326 325 322 320 321 323 326 327 322 313 308 304 290 273 257 241 231 227 224 221 216 215 214 213 212 212 217 221 222 225 231 234 236 237 238 240 240 232 227 229 232 234 234 232 229 229 227 222 216 210 207 210 216 223 229 231 231 231 231 232
336 334 333 333 333 331 328 327 327 327 325 324 326 326 324 322 321 321 320 322 326 329 331 332 332 332 331 329 330 329 324 322 323 322 315 307 302 292 274 256 238 226 224 222 218 214 213 214 215 216 217 221 227 228 229 234 236 237 239 239 240 241 236 229 228 229 230 231 231 228 226 225 223 219 210 205 208 214 218 220 221 226 230 230 230
333 333 333 332 330 328 328 328 326 324 324 326 326 324 322 321 320 321 324 327 331 333 335 335 332 327 322 321 322 320 315 312 315 316 313 306 301 292 277 254 230 221 220 215 212 210 211 215 217 218 221 226 232 233 232 236 239 238 239 238 236 238 238 234 230 227 227 229 229 226 224 224 224 220 213 209 211 211 210 210 211 218 225 228 230
334 335 333 332 331 331 332 330 326 325 328 329 327 324 322 321 322 329 333 333 332 333 333 330 325 318 313 314 315 311 305 304 306 308 308 304 297 288 275 248 221 220 219 212 208 208 208 213 217 221 225 229 234 238 235 237 241 239 237 236 233 231 233 234 233 231 230 230 231 230 226 224 225 222 216 215 213 206 203 203 204 208 214 221 229
337 336 333 334 334 334 333 332 329 330 331 331 328 325 324 325 330 337 337 332 328 327 326 325 321 317 313 312 312 309 303 300 302 303 303 301 293 282 267 236 216 217 215 209 207 207 209 211 216 223 227 228 234 240 238 238 242 240 235 231 229 227 227 229 230 230 229 229 230 232 228 225 225 223 218 216 213 207 203 207 210 205 204 219 233
337 336 336 335 335 335 334 333 333 332 331 330 328 327 329 333 335 336 333 330 326 323 322 322 321 319 316 314 313 311 307 304 305 304 302 300 293 274 245 220 212 211 209 208 208 208 210 210 212 220 225 229 235 241 243 242 242 240 234 227 223 223 223 225 226 226 226 226 226 228 228 225 222 220 219 217 213 209 206 210 214 210 211 228 239
336 337 337 336 336 335 333 332 332 330 329 328 328 331 337 337 333 329 329 328 326 322 321 321 320 319 317 315 313 312 310 309 308 305 302 301 295 272 232 212 207 203 202 205 207 206 207 210 214 221 229 236 242 247 252 251 244 239 233 225 221 219 219 222 225 225 225 224 222 223 225 222 219 220 221 216 212 211 210 213 218 220 227 241 241
338 339 339 336 334 333 331 330 330 329 328 328 330 335 336 331 327 325 325 326 325 323 321 320 318 316 315 314 311 310 310 310 308 305 304 304 296 268 229 212 204 199 198 199 201 200 203 214 223 229 236 242 246 250 253 253 246 238 231 226 222 218 216 219 224 224 223 226 225 220 215 213 214 216 214 210 209 214 218 221 228 233 241 249 243
337 338 338 336 332 331 331 330 329 330 329 329 332 333 330 326 324 324 324 324 323 322 321 319 317 315 314 313 311 310 310 309 305 304 306 306 294 257 223 213 202 197 194 193 197 200 209 226 235 241 244 245 247 250 251 250 246 239 233 230 225 220 216 218 223 227 224 222 222 214 204 206 209 208 207 209 213 219 228 235 241 247 251 254 253
334 333 334 334 331 330 329 328 329 330 329 330 333 330 326 324 324 324 325 324 323 322 321 319 317 316 315 314 312 312 311 308 306 306 311 306 285 242 225 215 199 198 194 190 199 205 214 233 242 247 253 252 249 251 252 250 244 237 234 231 227 224 221 218 222 231 231 223 217 210 204 206 208 207 212 221 226 231 238 241 242 245 250 253 254
331 330 332 333 332 329 328 328 329 329 328 331 334 330 325 324 325 326 327 326 325 325 323 320 318 316 314 313 312 311 310 310 309 310 312 305 279 235 232 222 199 204 204 196 204 208 214 233 242 250 260 261 252 247 247 247 242 235 231 228 225 224 223 220 222 227 227 222 219 218 218 219 220 223 227 230 232 229 222 217 214 216 223 227 227
330 331 332 333 331 330 329 328 328 329 329 332 334 331 326 324 326 327 327 327 327 326 324 321 319 316 314 313 313 312 313 313 311 308 305 302 284 242 238 228 205 211 212 203 209 214 219 234 246 254 263 264 255 247 245 243 236 228 226 224 222 224 228 231 230 223 216 218 222 221 218 216 212 211 211 208 202 193 191 198 208 217 220 218 214
331 331 332 332 332 332 330 328 328 328 329 331 333 332 327 326 327 327 328 328 328 326 324 322 319 317 315 315 315 314 315 316 315 310 305 300 285 249 238 234 216 213 213 207 213 219 225 237 247 254 261 262 254 245 238 228 217 212 213 211 211 215 221 229 227 211 202 201 197 180 169 169 165 165 176 186 190 198 207 212 214 224 232 232 232
330 331 331 331 332 332 329 327 327 328 328 330 332 331 329 329 329 329 329 329 328 327 324 321 319 318 317 317 317 316 317 318 316 310 304 300 288 262 246 243 230 219 217 215 217 224 232 237 244 251 255 254 246 237 229 212 198 198 201 193 187 196 204 205 205 192 174 161 154 149 155 174 184 191 198 205 214 224 223 217 222 240 250 250 251
329 331 330 329 330 331 329 326 327 328 329 329 329 329 330 331 330 330 331 330 329 327 324 321 320 320 319 319 320 319 318 319 318 312 304 296 288 274 261 255 242 228 227 225 224 233 238 238 241 245 242 240 235 224 218 213 205 209 216 211 203 202 202 204 207 201 181 166 173 207 227 222 220 221 222 222 221 217 219 244 264 272 269 262 262
328 329 328 328 328 328 327 326 327 329 330 329 327 328 330 331 331 332 332 331 329 328 325 324 324 323 322 322 323 322 321 321 321 318 313 304 292 278 266 260 251 241 241 238 237 239 238 236 241 245 245 253 263 243 208 215 228 237 237 233 228 215 201 199 204 202 193 185 189 212 226 228 228 228 228 229 225 208 198 242 270 271 257 245 246
328 329 329 329 327 326 326 326 327 329 329 328 327 327 329 330 332 333 333 331 330 328 326 326 325 324 324 325 325 324 325 326 326 322 317 312 307 299 285 269 256 251 252 252 248 247 245 244 245 247 253 264 277 280 255 234 230 236 242 240 233 224 216 210 200 184 172 173 187 210 225 230 227 222 222 227 230 229 219 208 209 231 228 220 214